����,���ϕ���(m/s),���ϕ���,�ő�u�ԕ���(m/s),�ő啗��������,�C��(��),���x(%),10���Ԉړ��ώZ�J��(mm),1���Ԉړ��ώZ�J��(mm),���J��(mm),�݌v�J��(mm),����(���ώZ)(MJ/m2),����(���ώZ)(min),���n�C��(hPa),�C�ʋC��(hPa)
2021-06-07T00:00:00+09:00,1.4,��쐼,3.9,��,20.2,70.4,0,0,0,0,19.6,363,1000.3,1013.9
2021-06-07T00:01:00+09:00,1.7,��쐼,4,��쐼,20.2,70.4,0,0,0,0,0,0,1000.3,1013.9
2021-06-07T00:02:00+09:00,1.9,��,4.9,��쐼,20.2,70.3,0,0,0,0,0,0,1000.2,1013.8
2021-06-07T00:03:00+09:00,2,��,4.9,��쐼,20.2,70.3,0,0,0,0,0,0,1000.2,1013.8
2021-06-07T00:04:00+09:00,2.2,��,4.9,��쐼,20.2,70.2,0,0,0,0,0,0,1000.1,1013.7
2021-06-07T00:05:00+09:00,2.4,��,4.9,��쐼,20.2,70.2,0,0,0,0,0,0,1000.1,1013.7
2021-06-07T00:06:00+09:00,2.4,��,4.9,��쐼,20.2,70.2,0,0,0,0,0,0,1000,1013.6
2021-06-07T00:07:00+09:00,2.6,��,4.9,��쐼,20.2,70.2,0,0,0,0,0,0,1000,1013.6
2021-06-07T00:08:00+09:00,2.7,��,4.9,��쐼,20.2,69.9,0,0,0,0,0,0,1000,1013.6
2021-06-07T00:09:00+09:00,2.9,��,4.9,��쐼,20.2,69.8,0,0,0,0,0,0,1000,1013.6
2021-06-07T00:10:00+09:00,2.9,��,4.9,��쐼,20.2,69.7,0,0,0,0,0,0,1000,1013.6
2021-06-07T00:11:00+09:00,2.9,��,4.9,��쐼,20.2,69.8,0,0,0,0,0,0,1000,1013.6
2021-06-07T00:12:00+09:00,2.7,��,4.5,��,20.1,69.8,0,0,0,0,0,0,1000,1013.6
2021-06-07T00:13:00+09:00,2.6,��,4.5,��,20.1,69.7,0,0,0,0,0,0,1000,1013.6
2021-06-07T00:14:00+09:00,2.4,��,4.5,��,20.1,69.5,0,0,0,0,0,0,1000,1013.6
2021-06-07T00:15:00+09:00,2.2,��,4.5,��,20.1,69.4,0,0,0,0,0,0,1000,1013.6
2021-06-07T00:16:00+09:00,2,��,4.5,��,20.1,69.6,0,0,0,0,0,0,1000,1013.6
2021-06-07T00:17:00+09:00,1.8,��,4.5,��,20.1,69.3,0,0,0,0,0,0,999.9,1013.5
2021-06-07T00:18:00+09:00,1.6,��,4.5,��,20.1,69.1,0,0,0,0,0,0,1000,1013.6
2021-06-07T00:19:00+09:00,1.3,��,3.6,��쐼,20,69.3,0,0,0,0,0,0,1000,1013.6
2021-06-07T00:20:00+09:00,1.2,��,3.6,��쐼,20,69.5,0,0,0,0,0,0,1000,1013.6
2021-06-07T00:21:00+09:00,1.1,��쓌,3.9,��,20,69.8,0,0,0,0,0,0,1000,1013.6
2021-06-07T00:22:00+09:00,1.2,��쓌,3.9,��,20,69.6,0,0,0,0,0,0,1000,1013.6
2021-06-07T00:23:00+09:00,1.2,��,3.9,��,20.1,69.6,0,0,0,0,0,0,1000,1013.6
2021-06-07T00:24:00+09:00,1.2,��,3.9,��,20.1,69.4,0,0,0,0,0,0,1000,1013.6
2021-06-07T00:25:00+09:00,1.3,��,3.9,��,20,69.4,0,0,0,0,0,0,1000,1013.6
2021-06-07T00:26:00+09:00,1.3,��,3.9,��,20,69.6,0,0,0,0,0,0,1000,1013.6
2021-06-07T00:27:00+09:00,1.4,��,3.9,��,20,69.6,0,0,0,0,0,0,1000,1013.6
2021-06-07T00:28:00+09:00,1.4,��,3.9,��,20,69.5,0,0,0,0,0,0,1000,1013.6
2021-06-07T00:29:00+09:00,1.5,��,3.9,��,20,69.4,0,0,0,0,0,0,1000,1013.6
2021-06-07T00:30:00+09:00,1.5,��,3.9,��,20,69.2,0,0,0,0,0,0,1000,1013.6
2021-06-07T00:31:00+09:00,1.5,��,3.3,��,20,69.3,0,0,0,0,0,0,1000,1013.6
2021-06-07T00:32:00+09:00,1.5,��,2.8,��쓌,20,69.3,0,0,0,0,0,0,1000,1013.6
2021-06-07T00:33:00+09:00,1.4,��,2.9,��,20.1,69.1,0,0,0,0,0,0,1000,1013.6
2021-06-07T00:34:00+09:00,1.5,��,3,��,20.1,68.9,0,0,0,0,0,0,1000.1,1013.7
2021-06-07T00:35:00+09:00,1.5,��,3,��,20.1,68.8,0,0,0,0,0,0,1000.1,1013.7
2021-06-07T00:36:00+09:00,1.5,��,3,��,20.1,68.9,0,0,0,0,0,0,1000.1,1013.7
2021-06-07T00:37:00+09:00,1.5,��,3,��,20.1,68.9,0,0,0,0,0,0,1000.1,1013.7
2021-06-07T00:38:00+09:00,1.5,��,3,��,20,68.7,0,0,0,0,0,0,1000.1,1013.7
2021-06-07T00:39:00+09:00,1.5,��,3,��,20,68.7,0,0,0,0,0,0,1000.1,1013.7
2021-06-07T00:40:00+09:00,1.5,��,3,��,20,68.8,0,0,0,0,0,0,1000.1,1013.7
2021-06-07T00:41:00+09:00,1.4,��,3,��,20,68.8,0,0,0,0,0,0,1000.1,1013.7
2021-06-07T00:42:00+09:00,1.3,��,3,��,20,69,0,0,0,0,0,0,1000.2,1013.8
2021-06-07T00:43:00+09:00,1.2,��,3,��,20,69,0,0,0,0,0,0,1000.2,1013.8
2021-06-07T00:44:00+09:00,1.1,��,2.5,��,20,69.2,0,0,0,0,0,0,1000.2,1013.8
2021-06-07T00:45:00+09:00,1,��,2.5,��,19.9,69.3,0,0,0,0,0,0,1000.2,1013.8
2021-06-07T00:46:00+09:00,1,��,2.5,��,19.9,69.5,0,0,0,0,0,0,1000.2,1013.8
2021-06-07T00:47:00+09:00,0.9,��,2.5,��,19.9,69.6,0,0,0,0,0,0,1000.2,1013.8
2021-06-07T00:48:00+09:00,0.8,��쓌,2.5,��,19.9,69.8,0,0,0,0,0,0,1000.2,1013.8
2021-06-07T00:49:00+09:00,0.8,��쓌,2.5,��,19.8,70,0,0,0,0,0,0,1000.2,1013.8
2021-06-07T00:50:00+09:00,0.9,��쓌,3,��쓌,19.8,70.3,0,0,0,0,0,0,1000.2,1013.8
2021-06-07T00:51:00+09:00,0.9,��쓌,3,��쓌,19.8,70.4,0,0,0,0,0,0,1000.1,1013.7
2021-06-07T00:52:00+09:00,1,��쓌,3,��쓌,19.9,70.4,0,0,0,0,0,0,1000.1,1013.7
2021-06-07T00:53:00+09:00,1,��쓌,3,��쓌,19.8,70.2,0,0,0,0,0,0,1000.1,1013.7
2021-06-07T00:54:00+09:00,1,��쓌,3,��쓌,19.8,70.4,0,0,0,0,0,0,1000.2,1013.8
2021-06-07T00:55:00+09:00,1,��쓌,3,��쓌,19.8,70.6,0,0,0,0,0,0,1000.2,1013.8
2021-06-07T00:56:00+09:00,1,��쓌,3,��쓌,19.8,70.2,0,0,0,0,0,0,1000.2,1013.8
2021-06-07T00:57:00+09:00,1,��쓌,3,��쓌,19.8,70.3,0,0,0,0,0,0,1000.2,1013.8
2021-06-07T00:58:00+09:00,1,��쓌,3,��쓌,19.7,70.5,0,0,0,0,0,0,1000.3,1013.9
2021-06-07T00:59:00+09:00,1,��쓌,3,��쓌,19.7,70.5,0,0,0,0,0,0,1000.2,1013.8
2021-06-07T01:00:00+09:00,0.9,��쓌,2.6,��,19.7,70.7,0,0,0,0,0,0,1000.2,1013.8
2021-06-07T01:01:00+09:00,1,��쓌,2.6,��,19.7,70.5,0,0,0,0,0,0,1000.2,1013.8
2021-06-07T01:02:00+09:00,0.9,��쓌,2.6,��,19.8,70.2,0,0,0,0,0,0,1000.2,1013.8
2021-06-07T01:03:00+09:00,0.9,��쓌,2.6,��,19.8,70,0,0,0,0,0,0,1000.1,1013.7
2021-06-07T01:04:00+09:00,0.9,��쓌,2.6,��,19.8,70.2,0,0,0,0,0,0,1000.1,1013.7
2021-06-07T01:05:00+09:00,0.9,��쓌,2.6,��,19.8,70.1,0,0,0,0,0,0,1000.1,1013.7
2021-06-07T01:06:00+09:00,0.9,�쓌,2.6,��,19.7,70,0,0,0,0,0,0,1000.1,1013.7
2021-06-07T01:07:00+09:00,0.9,��쓌,2.5,�쓌,19.7,70.1,0,0,0,0,0,0,1000.1,1013.7
2021-06-07T01:08:00+09:00,0.8,��쓌,2.5,�쓌,19.7,70.3,0,0,0,0,0,0,1000.1,1013.7
2021-06-07T01:09:00+09:00,0.8,��쓌,2.5,�쓌,19.8,70.1,0,0,0,0,0,0,1000.1,1013.7
2021-06-07T01:10:00+09:00,0.8,��쓌,2.5,�쓌,19.7,70,0,0,0,0,0,0,1000.1,1013.7
2021-06-07T01:11:00+09:00,0.8,��쓌,2.8,��,19.8,69.4,0,0,0,0,0,0,1000.1,1013.7
2021-06-07T01:12:00+09:00,0.7,��쓌,2.8,��,19.8,69.3,0,0,0,0,0,0,1000.1,1013.7
2021-06-07T01:13:00+09:00,0.7,��,3.7,��,19.9,69,0,0,0,0,0,0,1000.1,1013.7
2021-06-07T01:14:00+09:00,0.8,��,3.7,��,19.9,68.4,0,0,0,0,0,0,1000.1,1013.7
2021-06-07T01:15:00+09:00,1.1,��,4.9,��,20,67.7,0,0,0,0,0,0,1000.1,1013.7
2021-06-07T01:16:00+09:00,1.4,��,4.9,��,20.1,66.9,0,0,0,0,0,0,1000.2,1013.8
2021-06-07T01:17:00+09:00,1.7,��,4.9,��,20.2,66.7,0,0,0,0,0,0,1000.2,1013.8
2021-06-07T01:18:00+09:00,1.9,��,4.9,��,20.1,66.7,0,0,0,0,0,0,1000.2,1013.8
2021-06-07T01:19:00+09:00,2,��쐼,4.9,��,20,68.2,0,0,0,0,0,0,1000.2,1013.8
2021-06-07T01:20:00+09:00,2,��쐼,4.9,��,19.8,69.2,0,0,0,0,0,0,1000.2,1013.8
2021-06-07T01:21:00+09:00,2.1,��쐼,4.9,��,19.7,70.3,0,0,0,0,0,0,1000.1,1013.7
2021-06-07T01:22:00+09:00,2,�쐼,4.9,��,19.7,70.8,0,0,0,0,0,0,1000.1,1013.7
2021-06-07T01:23:00+09:00,1.9,�쐼,4.9,��,19.8,71.3,0,0,0,0,0,0,1000.1,1013.7
2021-06-07T01:24:00+09:00,1.8,�쐼,4.9,��,20,71.5,0,0,0,0,0,0,1000,1013.6
2021-06-07T01:25:00+09:00,1.4,���쐼,4.5,�쐼,19.8,71.7,0,0,0,0,0,0,1000,1013.6
2021-06-07T01:26:00+09:00,1.1,���쐼,4.5,�쐼,19.7,72.4,0,0,0,0,0,0,1000,1013.6
2021-06-07T01:27:00+09:00,0.9,��,4.5,�쐼,19.8,72.9,0,0,0,0,0,0,1000,1013.6
2021-06-07T01:28:00+09:00,0.8,���k��,3,�쐼,19.8,72.8,0,0,0,0,0,0,1000,1013.6
2021-06-07T01:29:00+09:00,0.7,���k��,2.5,���k��,19.7,72.7,0,0,0,0,0,0,1000,1013.6
2021-06-07T01:30:00+09:00,0.9,���k��,2.7,���k��,19.4,73.2,0,0,0,0,0,0,1000,1013.6
2021-06-07T01:31:00+09:00,0.9,���k��,3.1,��,19.3,74.1,0,0,0,0,0,0,1000,1013.6
2021-06-07T01:32:00+09:00,1.2,���k��,4.4,��,19.3,73.8,0,0,0,0,0,0,999.9,1013.5
2021-06-07T01:33:00+09:00,1.6,���k��,5.1,���쐼,19.7,72.5,0,0,0,0,0,0,999.9,1013.5
2021-06-07T01:34:00+09:00,1.7,��,5.1,���쐼,20.1,69.6,0,0,0,0,0,0,1000,1013.6
2021-06-07T01:35:00+09:00,1.8,��,5.1,���쐼,20.2,68.1,0,0,0,0,0,0,1000,1013.6
2021-06-07T01:36:00+09:00,1.9,��,5.1,���쐼,20.2,67.7,0,0,0,0,0,0,1000,1013.6
2021-06-07T01:37:00+09:00,2,��,5.1,���쐼,20.3,67,0,0,0,0,0,0,1000,1013.6
2021-06-07T01:38:00+09:00,2.1,���쐼,5.1,���쐼,20.2,66.6,0,0,0,0,0,0,1000,1013.6
2021-06-07T01:39:00+09:00,2.1,���쐼,5.1,���쐼,20.2,66.6,0,0,0,0,0,0,1000.1,1013.7
2021-06-07T01:40:00+09:00,1.9,���쐼,5.1,���쐼,20.2,66.7,0,0,0,0,0,0,1000.1,1013.7
2021-06-07T01:41:00+09:00,1.7,�쐼,5.1,���쐼,19.9,67.4,0,0,0,0,0,0,1000.1,1013.7
2021-06-07T01:42:00+09:00,1.5,�쐼,5.1,���쐼,19.7,69.3,0,0,0,0,0,0,1000,1013.6
2021-06-07T01:43:00+09:00,1.3,�쐼,3.3,��,20,68.9,0,0,0,0,0,0,1000,1013.6
2021-06-07T01:44:00+09:00,1.3,�쐼,2.9,��,20,68.3,0,0,0,0,0,0,1000.1,1013.7
2021-06-07T01:45:00+09:00,1.2,�쐼,2.9,��,20,68.2,0,0,0,0,0,0,1000.1,1013.7
2021-06-07T01:46:00+09:00,1.3,�쐼,3,��,19.5,70,0,0,0,0,0,0,1000.1,1013.7
2021-06-07T01:47:00+09:00,1.3,���쐼,3,��,19.2,72.2,0,0,0,0,0,0,1000.1,1013.7
2021-06-07T01:48:00+09:00,1.2,���쐼,3,��,18.9,73.7,0,0,0,0,0,0,1000.1,1013.7
2021-06-07T01:49:00+09:00,1.1,���쐼,3,��,18.9,75.2,0,0,0,0,0,0,1000.1,1013.7
2021-06-07T01:50:00+09:00,1.2,���쐼,3,��,19,76.4,0,0,0,0,0,0,1000,1013.6
2021-06-07T01:51:00+09:00,1.2,��,3,��,19,76.8,0,0,0,0,0,0,1000,1013.6
2021-06-07T01:52:00+09:00,1.2,��,3,��,19.1,77.2,0,0,0,0,0,0,1000,1013.6
2021-06-07T01:53:00+09:00,1.1,��,3,��,18.8,76.4,0,0,0,0,0,0,1000,1013.6
2021-06-07T01:54:00+09:00,1,��,3,��,18.8,76.7,0,0,0,0,0,0,1000,1013.6
2021-06-07T01:55:00+09:00,0.9,���쐼,3,��,18.9,76.5,0,0,0,0,0,0,1000,1013.6
2021-06-07T01:56:00+09:00,0.8,���쐼,2.1,��,19,76.7,0,0,0,0,0,0,1000,1013.6
2021-06-07T01:57:00+09:00,0.9,���쐼,2.1,��,18.9,76.6,0,0,0,0,0,0,1000,1013.6
2021-06-07T01:58:00+09:00,0.8,���쐼,2,��,19.1,76.4,0,0,0,0,0,0,1000.1,1013.7
2021-06-07T01:59:00+09:00,0.8,���쐼,2,��,18.9,75.8,0,0,0,0,0,0,1000.1,1013.7
2021-06-07T02:00:00+09:00,0.8,���쐼,2,��,18.9,75.9,0,0,0,0,0,0,1000,1013.6
2021-06-07T02:01:00+09:00,0.8,�쐼,2,��,18.9,76.2,0,0,0,0,0,0,1000,1013.6
2021-06-07T02:02:00+09:00,0.7,�쐼,2,��,19.1,75.7,0,0,0,0,0,0,1000,1013.6
2021-06-07T02:03:00+09:00,0.7,�쐼,2,��,19.3,74.7,0,0,0,0,0,0,1000,1013.6
2021-06-07T02:04:00+09:00,0.7,�쐼,2,��,19.2,74.6,0,0,0,0,0,0,1000.1,1013.7
2021-06-07T02:05:00+09:00,0.7,�쐼,2,��,19,74.7,0,0,0,0,0,0,1000.1,1013.7
2021-06-07T02:06:00+09:00,0.6,�쐼,2,��,18.9,75,0,0,0,0,0,0,1000.1,1013.7
2021-06-07T02:07:00+09:00,0.5,�쐼,1.5,�쐼,18.9,75.1,0,0,0,0,0,0,1000.1,1013.7
2021-06-07T02:08:00+09:00,0.4,��쐼,1.5,�쐼,19,75.3,0,0,0,0,0,0,1000,1013.6
2021-06-07T02:09:00+09:00,0.3,��쐼,1.2,��쐼,18.8,74.8,0,0,0,0,0,0,1000,1013.6
2021-06-07T02:10:00+09:00,0.3,��쐼,1,���쐼,19,75.3,0,0,0,0,0,0,1000,1013.6
2021-06-07T02:11:00+09:00,0.3,��쐼,1,���쐼,19.1,74.7,0,0,0,0,0,0,1000,1013.6
2021-06-07T02:12:00+09:00,0.3,��쐼,1,���쐼,19.2,74.6,0,0,0,0,0,0,1000,1013.6
2021-06-07T02:13:00+09:00,0.3,��쐼,1,���쐼,19.3,74.4,0,0,0,0,0,0,1000,1013.6
2021-06-07T02:14:00+09:00,0.3,��쐼,0.9,�쐼,19.1,73.8,0,0,0,0,0,0,1000,1013.6
2021-06-07T02:15:00+09:00,0.3,��쐼,0.8,��쐼,19,73.9,0,0,0,0,0,0,1000,1013.6
2021-06-07T02:16:00+09:00,0.3,��쐼,0.8,��쐼,18.9,74.6,0,0,0,0,0,0,999.9,1013.5
2021-06-07T02:17:00+09:00,0.3,��,0.8,��쐼,18.8,75.3,0,0,0,0,0,0,999.9,1013.5
2021-06-07T02:18:00+09:00,0.3,��,0.8,��쐼,18.8,75.8,0,0,0,0,0,0,999.9,1013.5
2021-06-07T02:19:00+09:00,0.3,��쐼,0.8,��쐼,18.9,76,0,0,0,0,0,0,999.9,1013.5
2021-06-07T02:20:00+09:00,0.3,��쐼,0.7,��,18.8,75.9,0,0,0,0,0,0,999.9,1013.5
2021-06-07T02:21:00+09:00,0.2,�É�,0.7,��,18.6,75.7,0,0,0,0,0,0,1000,1013.6
2021-06-07T02:22:00+09:00,0.2,�É�,1.1,���k��,18.8,76.3,0,0,0,0,0,0,1000,1013.6
2021-06-07T02:23:00+09:00,0.3,��쐼,1.1,���k��,18.7,76.1,0,0,0,0,0,0,1000,1013.6
2021-06-07T02:24:00+09:00,0.3,�쐼,1.1,���k��,18.7,76.3,0,0,0,0,0,0,1000.1,1013.7
2021-06-07T02:25:00+09:00,0.4,���쐼,1.6,��,18.5,76.7,0,0,0,0,0,0,1000.1,1013.8
2021-06-07T02:26:00+09:00,0.5,���쐼,1.8,��,18.4,77,0,0,0,0,0,0,1000.1,1013.8
2021-06-07T02:27:00+09:00,0.6,��,1.8,��,18.3,77.8,0,0,0,0,0,0,1000.1,1013.8
2021-06-07T02:28:00+09:00,0.7,��,1.8,��,18.2,78.7,0,0,0,0,0,0,1000.1,1013.8
2021-06-07T02:29:00+09:00,0.8,��,1.8,��,18.2,79.3,0,0,0,0,0,0,1000.1,1013.8
2021-06-07T02:30:00+09:00,0.9,��,1.8,��,18.2,79.1,0,0,0,0,0,0,1000.2,1013.9
2021-06-07T02:31:00+09:00,1.1,��,1.9,��,18.1,79.7,0,0,0,0,0,0,1000.2,1013.9
2021-06-07T02:32:00+09:00,1.2,��,2.3,��,18.1,80.4,0,0,0,0,0,0,1000.2,1013.9
2021-06-07T02:33:00+09:00,1.3,��,2.6,��,18.1,81,0,0,0,0,0,0,1000.2,1013.9
2021-06-07T02:34:00+09:00,1.5,��,3.1,��,18.1,81,0,0,0,0,0,0,1000.2,1013.9
2021-06-07T02:35:00+09:00,1.6,��,3.1,��,18,81,0,0,0,0,0,0,1000.2,1013.9
2021-06-07T02:36:00+09:00,1.7,��,3.1,��,17.9,81.6,0,0,0,0,0,0,1000.2,1013.9
2021-06-07T02:37:00+09:00,1.8,��,3.1,��,17.9,82.1,0,0,0,0,0,0,1000.2,1013.9
2021-06-07T02:38:00+09:00,1.8,��,3.1,��,18,82.9,0,0,0,0,0,0,1000.2,1013.9
2021-06-07T02:39:00+09:00,1.9,��,3.1,��,18,83.3,0,0,0,0,0,0,1000.2,1013.9
2021-06-07T02:40:00+09:00,2,��,3.1,��,18,83.5,0,0,0,0,0,0,1000.2,1013.9
2021-06-07T02:41:00+09:00,2.1,��,3.1,��,18,83.3,0,0,0,0,0,0,1000.2,1013.9
2021-06-07T02:42:00+09:00,2.1,��,3.1,��,17.8,82.9,0,0,0,0,0,0,1000.2,1013.9
2021-06-07T02:43:00+09:00,2.1,��,3.1,��,17.8,83.1,0,0,0,0,0,0,1000.2,1013.9
2021-06-07T02:44:00+09:00,2.1,��,3.1,��,17.8,83.4,0,0,0,0,0,0,1000.2,1013.9
2021-06-07T02:45:00+09:00,2.1,��,3,��,17.8,83.5,0,0,0,0,0,0,1000.2,1013.9
2021-06-07T02:46:00+09:00,2,��,2.8,��,17.8,83.3,0,0,0,0,0,0,1000.2,1013.9
2021-06-07T02:47:00+09:00,2,��,2.8,��,17.8,83.4,0,0,0,0,0,0,1000.2,1013.9
2021-06-07T02:48:00+09:00,2,��,2.8,��,17.9,83.4,0,0,0,0,0,0,1000.2,1013.9
2021-06-07T02:49:00+09:00,1.9,��,2.8,��,17.9,82.8,0,0,0,0,0,0,1000.2,1013.9
2021-06-07T02:50:00+09:00,1.9,��,2.8,��,17.9,82.5,0,0,0,0,0,0,1000.2,1013.9
2021-06-07T02:51:00+09:00,1.8,��,2.8,��,18,82.2,0,0,0,0,0,0,1000.2,1013.9
2021-06-07T02:52:00+09:00,1.8,��,2.8,��,18,82.1,0,0,0,0,0,0,1000.2,1013.9
2021-06-07T02:53:00+09:00,1.7,��,2.7,��,18.1,82.5,0,0,0,0,0,0,1000.2,1013.9
2021-06-07T02:54:00+09:00,1.7,��,2.4,��,18.2,82.7,0,0,0,0,0,0,1000.2,1013.9
2021-06-07T02:55:00+09:00,1.7,��,2.3,��,18.2,82.7,0,0,0,0,0,0,1000.2,1013.9
2021-06-07T02:56:00+09:00,1.7,��,2.3,��,18.1,82.7,0,0,0,0,0,0,1000.3,1014
2021-06-07T02:57:00+09:00,1.7,��,2.4,��,18,83.1,0,0,0,0,0,0,1000.3,1014
2021-06-07T02:58:00+09:00,1.7,��,2.5,��,17.9,83.3,0,0,0,0,0,0,1000.4,1014.1
2021-06-07T02:59:00+09:00,1.7,��,2.5,��,17.8,83.5,0,0,0,0,0,0,1000.4,1014.1
2021-06-07T03:00:00+09:00,1.6,��,2.5,��,17.8,84.3,0,0,0,0,0,0,1000.5,1014.2
2021-06-07T03:01:00+09:00,1.5,��,2.5,��,17.7,84.3,0,0,0,0,0,0,1000.6,1014.3
2021-06-07T03:02:00+09:00,1.5,��,2.5,��,17.7,84.2,0,0,0,0,0,0,1000.6,1014.3
2021-06-07T03:03:00+09:00,1.5,��,2.8,��,17.8,84.6,0,0,0,0,0,0,1000.7,1014.4
2021-06-07T03:04:00+09:00,1.6,��,3,��,17.7,84,0,0,0,0,0,0,1000.7,1014.4
2021-06-07T03:05:00+09:00,1.6,��,3,��,17.8,83.9,0,0,0,0,0,0,1000.7,1014.4
2021-06-07T03:06:00+09:00,1.6,��,3,��,17.8,83.6,0,0,0,0,0,0,1000.6,1014.3
2021-06-07T03:07:00+09:00,1.6,��,3,��,18,83.5,0,0,0,0,0,0,1000.6,1014.3
2021-06-07T03:08:00+09:00,1.5,��,3,��,18,83,0,0,0,0,0,0,1000.6,1014.3
2021-06-07T03:09:00+09:00,1.5,��,3,��,18.1,82.4,0,0,0,0,0,0,1000.6,1014.3
2021-06-07T03:10:00+09:00,1.5,��,3,��,18.1,81.7,0,0,0,0,0,0,1000.5,1014.2
2021-06-07T03:11:00+09:00,1.7,���k��,3,��,18.2,81.6,0,0,0,0,0,0,1000.5,1014.2
2021-06-07T03:12:00+09:00,1.7,���k��,3,��,18.3,81.3,0,0,0,0,0,0,1000.5,1014.2
2021-06-07T03:13:00+09:00,1.6,���k��,3,��,18.2,80.7,0,0,0,0,0,0,1000.5,1014.2
2021-06-07T03:14:00+09:00,1.5,���k��,2.8,��,18.1,80.7,0,0,0,0,0,0,1000.6,1014.3
2021-06-07T03:15:00+09:00,1.4,���k��,2.2,���k��,18.1,80.8,0,0,0,0,0,0,1000.6,1014.3
2021-06-07T03:16:00+09:00,1.4,���k��,2.2,���k��,18,80.7,0,0,0,0,0,0,1000.6,1014.3
2021-06-07T03:17:00+09:00,1.4,���k��,2.2,���k��,18.3,81.4,0,0,0,0,0,0,1000.6,1014.3
2021-06-07T03:18:00+09:00,1.4,���k��,2.2,���k��,18.3,81.3,0,0,0,0,0,0,1000.6,1014.3
2021-06-07T03:19:00+09:00,1.3,���k��,2.2,���k��,18.2,80.4,0,0,0,0,0,0,1000.5,1014.2
2021-06-07T03:20:00+09:00,1.3,���k��,2.2,���k��,18.3,80.4,0,0,0,0,0,0,1000.6,1014.3
2021-06-07T03:21:00+09:00,1.2,���k��,2,��,18.5,80.8,0,0,0,0,0,0,1000.6,1014.3
2021-06-07T03:22:00+09:00,1.2,���k��,1.9,���k��,18.2,79.8,0,0,0,0,0,0,1000.6,1014.3
2021-06-07T03:23:00+09:00,1.2,���k��,1.9,���k��,18.2,79.2,0,0,0,0,0,0,1000.6,1014.3
2021-06-07T03:24:00+09:00,1.2,���k��,1.8,��,18.3,79.4,0,0,0,0,0,0,1000.6,1014.3
2021-06-07T03:25:00+09:00,1.2,���k��,1.8,��,18.2,79,0,0,0,0,0,0,1000.7,1014.4
2021-06-07T03:26:00+09:00,1.3,���k��,2.1,��,18,78.2,0,0,0,0,0,0,1000.7,1014.4
2021-06-07T03:27:00+09:00,1.3,��,2.1,��,17.9,78.4,0,0,0,0,0,0,1000.8,1014.5
2021-06-07T03:28:00+09:00,1.3,��,2.1,��,17.9,79.1,0,0,0,0,0,0,1000.8,1014.5
2021-06-07T03:29:00+09:00,1.4,��,2.2,��,17.9,79.9,0,0,0,0,0,0,1000.8,1014.5
2021-06-07T03:30:00+09:00,1.4,��,2.2,��,17.8,79.9,0,0,0,0,0,0,1000.8,1014.5
2021-06-07T03:31:00+09:00,1.5,��,2.5,���k��,17.7,80.4,0,0,0,0,0,0,1000.8,1014.5
2021-06-07T03:32:00+09:00,1.6,��,2.5,���k��,17.7,80.9,0,0,0,0,0,0,1000.9,1014.6
2021-06-07T03:33:00+09:00,1.6,��,2.5,���k��,17.6,81.4,0,0,0,0,0,0,1000.9,1014.6
2021-06-07T03:34:00+09:00,1.6,��,2.5,���k��,17.6,82,0,0,0,0,0,0,1000.9,1014.6
2021-06-07T03:35:00+09:00,1.7,��,2.5,���k��,17.5,82.3,0,0,0,0,0,0,1000.9,1014.6
2021-06-07T03:36:00+09:00,1.6,��,2.5,���k��,17.5,82.7,0,0,0,0,0,0,1000.9,1014.6
2021-06-07T03:37:00+09:00,1.6,��,2.5,���k��,17.7,83.3,0,0,0,0,0,0,1000.9,1014.6
2021-06-07T03:38:00+09:00,1.6,��,2.5,���k��,17.8,83.7,0,0,0,0,0,0,1000.9,1014.6
2021-06-07T03:39:00+09:00,1.5,���k��,2.5,���k��,17.9,83.3,0,0,0,0,0,0,1000.8,1014.5
2021-06-07T03:40:00+09:00,1.4,���k��,2.5,���k��,17.9,82.6,0,0,0,0,0,0,1000.8,1014.5
2021-06-07T03:41:00+09:00,1.3,���k��,2.2,��,18.1,82.6,0,0,0,0,0,0,1000.8,1014.5
2021-06-07T03:42:00+09:00,1.1,���k��,2,��,18,81.9,0,0,0,0,0,0,1000.8,1014.5
2021-06-07T03:43:00+09:00,1,���k��,1.9,��,18,81.7,0,0,0,0,0,0,1000.8,1014.5
2021-06-07T03:44:00+09:00,0.8,���k��,1.8,��,18,81.5,0,0,0,0,0,0,1000.9,1014.6
2021-06-07T03:45:00+09:00,0.7,�k��,1.8,��,18,81.5,0,0,0,0,0,0,1000.8,1014.5
2021-06-07T03:46:00+09:00,0.6,�k��,1.6,��,17.9,81.6,0,0,0,0,0,0,1000.8,1014.5
2021-06-07T03:47:00+09:00,0.6,�k��,1.3,���k��,17.9,81.6,0,0,0,0,0,0,1000.8,1014.5
2021-06-07T03:48:00+09:00,0.5,�k��,1.1,�k��,17.9,82.1,0,0,0,0,0,0,1000.9,1014.6
2021-06-07T03:49:00+09:00,0.4,�k��,1.1,�k��,17.8,82,0,0,0,0,0,0,1000.9,1014.6
2021-06-07T03:50:00+09:00,0.4,�k��,1.1,�k��,17.8,82.2,0,0,0,0,0,0,1001,1014.7
2021-06-07T03:51:00+09:00,0.4,�k��,1.1,�k��,17.8,82.3,0,0,0,0,0,0,1001,1014.7
2021-06-07T03:52:00+09:00,0.4,�k��,1.1,�k��,17.8,82.5,0,0,0,0,0,0,1001,1014.7
2021-06-07T03:53:00+09:00,0.3,�k��,1.1,�k��,17.8,82.8,0,0,0,0,0,0,1001.1,1014.8
2021-06-07T03:54:00+09:00,0.3,�k��,1.1,�k��,17.4,81.9,0,0,0,0,0,0,1001.1,1014.8
2021-06-07T03:55:00+09:00,0.3,���k��,1.1,�k��,17.6,82.9,0,0,0,0,0,0,1001.2,1014.9
2021-06-07T03:56:00+09:00,0.3,���k��,1.1,�k��,17.7,83.4,0,0,0,0,0,0,1001.2,1014.9
2021-06-07T03:57:00+09:00,0.3,�k��,1.1,�k��,17.8,83.4,0,0,0,0,0,0,1001.2,1014.9
2021-06-07T03:58:00+09:00,0.2,�É�,0.8,���쐼,17.9,82.8,0,0,0,0,0,0,1001.2,1014.9
2021-06-07T03:59:00+09:00,0.2,�É�,0.8,���쐼,17.9,82.3,0,0,0,0,0,0,1001.2,1014.9
2021-06-07T04:00:00+09:00,0.2,�É�,0.8,���쐼,17.9,82.1,0,0,0,0,0,0,1001.2,1014.9
2021-06-07T04:01:00+09:00,0.3,�k��,0.8,���쐼,18.1,82.1,0,0,0,0,0,0,1001.3,1015
2021-06-07T04:02:00+09:00,0.3,�k�k��,0.8,���쐼,18,81.7,0,0,0,0,0,0,1001.3,1015
2021-06-07T04:03:00+09:00,0.3,�k��,1.2,��,18.1,81.4,0,0,0,0,0,0,1001.4,1015.1
2021-06-07T04:04:00+09:00,0.4,�k��,1.4,��,17.9,81.1,0,0,0,0,0,0,1001.5,1015.2
2021-06-07T04:05:00+09:00,0.5,�k��,1.4,��,17.9,81.4,0,0,0,0,0,0,1001.5,1015.2
2021-06-07T04:06:00+09:00,0.6,�k��,1.4,��,17.8,81.7,0,0,0,0,0,0,1001.5,1015.2
2021-06-07T04:07:00+09:00,0.5,�k��,1.4,��,17.5,81.4,0,0,0,0,0,0,1001.4,1015.1
2021-06-07T04:08:00+09:00,0.7,���k��,1.7,��,17.4,82.1,0,0,0,0,0,0,1001.4,1015.1
2021-06-07T04:09:00+09:00,0.8,���k��,1.7,��,17.4,82.7,0,0,0,0,0,0,1001.4,1015.1
2021-06-07T04:10:00+09:00,0.9,��,1.7,��,17.4,83.3,0,0,0,0,0,0,1001.4,1015.1
2021-06-07T04:11:00+09:00,1,��,1.8,��,17.6,83.8,0,0,0,0,0,0,1001.4,1015.1
2021-06-07T04:12:00+09:00,1.1,��,1.8,��,17.6,83.5,0,0,0,0,0,0,1001.5,1015.2
2021-06-07T04:13:00+09:00,1.2,��,1.8,��,17.6,83.1,0,0,0,0,0,0,1001.6,1015.3
2021-06-07T04:14:00+09:00,1.2,��,2.2,��,17.4,82.7,0,0,0,0,0,0,1001.6,1015.3
2021-06-07T04:15:00+09:00,1.3,��,2.3,��,17.4,82.7,0,0,0,0,0,0,1001.6,1015.3
2021-06-07T04:16:00+09:00,1.4,��,2.3,��,17.3,82.9,0,0,0,0,0,0,1001.6,1015.3
2021-06-07T04:17:00+09:00,1.5,��,2.3,��,17.3,83.1,0,0,0,0,0,0,1001.6,1015.3
2021-06-07T04:18:00+09:00,1.5,��,2.3,��,17.4,83.5,0,0,0,0,0,0,1001.6,1015.3
2021-06-07T04:19:00+09:00,1.5,��,2.3,��,17.2,83.3,0,0,0,0,0,0,1001.6,1015.3
2021-06-07T04:20:00+09:00,1.5,��,2.3,��,17.1,83.2,0,0,0,0,0,0,1001.6,1015.3
2021-06-07T04:21:00+09:00,1.4,��,2.3,��,17.3,84.1,0,0,0,0,0,0,1001.6,1015.3
2021-06-07T04:22:00+09:00,1.2,��,2.3,��,17.6,84.7,0,0,0,0,0,0,1001.6,1015.3
2021-06-07T04:23:00+09:00,1.1,���k��,2.3,��,17.7,83.9,0,0,0,0,0,0,1001.6,1015.3
2021-06-07T04:24:00+09:00,1,���k��,2.3,��,17.7,83.2,0,0,0,0,0,0,1001.6,1015.3
2021-06-07T04:25:00+09:00,0.8,���k��,2.2,��,17.4,82.3,0,0,0,0,0,0,1001.6,1015.3
2021-06-07T04:26:00+09:00,0.7,���k��,1.5,��,17.1,81.8,0,0,0,0,0,0,1001.7,1015.4
2021-06-07T04:27:00+09:00,0.6,��,1.4,��,17.1,82.4,0,0,0,0,0,0,1001.7,1015.4
2021-06-07T04:28:00+09:00,0.5,��,1.3,��,17.2,83.2,0,0,0,0,0,0,1001.7,1015.4
2021-06-07T04:29:00+09:00,0.4,��,1.2,���쐼,17.3,83.7,0,0,0,0,0,0,1001.7,1015.4
2021-06-07T04:30:00+09:00,0.4,��,1.2,���쐼,17.4,83.7,0,0,0,0,0,0,1001.7,1015.4
2021-06-07T04:31:00+09:00,0.4,��,1.2,���쐼,17.6,84,0,0,0,0,0,0,1001.7,1015.4
2021-06-07T04:32:00+09:00,0.4,��,1.2,���쐼,17.5,83.4,0,0,0,0,0,0,1001.7,1015.4
2021-06-07T04:33:00+09:00,0.5,���쐼,1.2,���쐼,17.4,82.7,0,0,0,0,0,0,1001.7,1015.4
2021-06-07T04:34:00+09:00,0.5,���쐼,1.2,���쐼,17.3,82.8,0,0,0,0,0,0,1001.7,1015.4
2021-06-07T04:35:00+09:00,0.6,���쐼,1.3,��,17.3,82.4,0,0,0,0,0,0,1001.8,1015.5
2021-06-07T04:36:00+09:00,0.6,��,1.3,��,17.4,82.6,0,0,0,0,0,0,1001.8,1015.5
2021-06-07T04:37:00+09:00,0.6,��,1.3,��,17.4,82.3,0,0,0,0,0,0,1001.8,1015.5
2021-06-07T04:38:00+09:00,0.7,��,1.3,��,17.5,81.9,0,0,0,0,0,0,1001.9,1015.6
2021-06-07T04:39:00+09:00,0.7,��,1.3,��,17.6,81.7,0,0,0,0,0,0,1001.9,1015.6
2021-06-07T04:40:00+09:00,0.8,��,1.3,��,17.6,81.3,0,0,0,0,0,0,1001.9,1015.6
2021-06-07T04:41:00+09:00,0.9,��,1.6,��,17.5,80.9,0,0,0,0,0,0,1001.9,1015.6
2021-06-07T04:42:00+09:00,0.9,��,1.6,��,17.5,81.3,0,0,0,0,0,0,1001.9,1015.6
2021-06-07T04:43:00+09:00,1,��,1.6,��,17.4,81.6,0,0,0,0,0,0,1002,1015.7
2021-06-07T04:44:00+09:00,1,���k��,1.6,��,17.5,82.3,0,0,0,0,0,0,1002,1015.7
2021-06-07T04:45:00+09:00,1,���k��,1.6,��,17.5,82.5,0,0,0,0,0,0,1002,1015.7
2021-06-07T04:46:00+09:00,1,���k��,1.6,��,17.5,82.3,0,0,0,0,0,0,1002,1015.7
2021-06-07T04:47:00+09:00,1.1,���k��,1.6,��,17.5,82.4,0,0,0,0,0,0,1002,1015.7
2021-06-07T04:48:00+09:00,1.2,���k��,1.6,��,17.5,82,0,0,0,0,0,0,1002,1015.7
2021-06-07T04:49:00+09:00,1.2,��,1.6,��,17.4,82,0,0,0,0,0,0,1002.1,1015.8
2021-06-07T04:50:00+09:00,1.2,��,1.6,��,17.4,82.1,0,0,0,0,0,0,1002.1,1015.8
2021-06-07T04:51:00+09:00,1.1,��,1.5,���k��,17.3,82,0,0,0,0,0,0,1002.1,1015.8
2021-06-07T04:52:00+09:00,1.1,��,1.4,��,17.3,82.2,0,0,0,0,0,0,1002.2,1015.9
2021-06-07T04:53:00+09:00,1.1,��,1.4,��,17.3,82.6,0,0,0,0,0,0,1002.2,1015.9
2021-06-07T04:54:00+09:00,1.1,��,1.4,��,17.3,82.9,0,0,0,0,0,0,1002.2,1015.9
2021-06-07T04:55:00+09:00,1.1,��,1.6,���k��,17.2,82.8,0,0,0,0,0,0,1002.2,1015.9
2021-06-07T04:56:00+09:00,1.1,��,1.6,���k��,17.2,82.9,0,0,0,0,0,0,1002.2,1015.9
2021-06-07T04:57:00+09:00,1.2,��,1.7,��,17.4,83.5,0,0,0,0,0,0,1002.2,1015.9
2021-06-07T04:58:00+09:00,1.2,��,1.7,��,17.4,83.4,0,0,0,0,0,0,1002.3,1016
2021-06-07T04:59:00+09:00,1.2,��,1.7,��,17.4,83.2,0,0,0,0,0,0,1002.3,1016
2021-06-07T05:00:00+09:00,1.3,��,1.7,��,17.3,82.9,0,0,0,0,0,0,1002.3,1016
2021-06-07T05:01:00+09:00,1.3,���k��,1.7,��,17.3,83.2,0,0,0,0,0,0,1002.3,1016
2021-06-07T05:02:00+09:00,1.3,���k��,1.7,��,17.3,83.2,0,0,0,0,0,0,1002.3,1016
2021-06-07T05:03:00+09:00,1.3,���k��,1.7,��,17.2,83.1,0,0,0,0,0.01,0,1002.3,1016
2021-06-07T05:04:00+09:00,1.3,��,1.7,��,17.1,82.5,0,0,0,0,0.01,0,1002.3,1016.1
2021-06-07T05:05:00+09:00,1.3,��,1.7,��,17.2,83.1,0,0,0,0,0.01,0,1002.3,1016
2021-06-07T05:06:00+09:00,1.2,��,1.7,��,17.1,83,0,0,0,0,0.01,0,1002.3,1016.1
2021-06-07T05:07:00+09:00,1.2,��,1.7,��,17.2,83.2,0,0,0,0,0.01,0,1002.3,1016
2021-06-07T05:08:00+09:00,1.1,��,1.5,��,17.2,83.2,0,0,0,0,0.01,0,1002.3,1016
2021-06-07T05:09:00+09:00,1.1,��,1.5,��,17.2,83.1,0,0,0,0,0.01,0,1002.3,1016
2021-06-07T05:10:00+09:00,1,��,1.4,��,17.4,83.2,0,0,0,0,0.01,0,1002.3,1016
2021-06-07T05:11:00+09:00,1,��,1.4,��,17.2,82.6,0,0,0,0,0.01,0,1002.3,1016